Location: Asheville, NC
(35.6000°N, 82.5500°W)
Time: 16:54:47
(UTC-05:00)

Vanguard 2 Rocket - Pass Details

Date: 16 December 2017
Orbit: 556 x 3326 km, 32.9° (Epoch: 20 January)

Event Time Altitude Azimuth Distance (km) Brightness Sun altitude
Rises 02:39:02 0° 283° (WNW) 7,110 - -58.7°
Reaches altitude 10° 02:44:47 10° 273° (W) 6,238 - -57.6°
Maximum altitude 02:59:55 28° 225° (SW) 4,774 - -54.6°
Exits shadow 03:10:39 15° 182° (S) 5,121 10.6 -52.4°
Drops below altitude 10° 03:13:14 10° 174° (S) 5,396 10.8 -51.9°
Sets 03:17:50 0° 163° (SSE) 6,030 11.2 -51.0°
